Year,Month,Day,Hour,Minute,Value (Times are PST for temperature in C)
2015,05,19,00,00,15.80
2015,05,19,00,01,15.80
2015,05,19,00,02,15.80
2015,05,19,00,03,15.80
2015,05,19,00,04,15.80
2015,05,19,00,05,15.80
2015,05,19,00,06,15.80
2015,05,19,00,07,15.70
2015,05,19,00,08,15.70
2015,05,19,00,09,15.70
2015,05,19,00,10,15.70
2015,05,19,00,11,15.70
2015,05,19,00,12,15.70
2015,05,19,00,13,15.70
2015,05,19,00,14,15.60
2015,05,19,00,15,15.60
2015,05,19,00,16,15.60
2015,05,19,00,17,15.60
2015,05,19,00,18,15.50
2015,05,19,00,19,15.60
2015,05,19,00,20,15.60
2015,05,19,00,21,15.60
2015,05,19,00,22,15.60
2015,05,19,00,23,15.60
2015,05,19,00,24,15.60
2015,05,19,00,25,15.70
2015,05,19,00,26,15.70
2015,05,19,00,27,15.70
2015,05,19,00,28,15.70
2015,05,19,00,29,15.70
2015,05,19,00,30,15.70
2015,05,19,00,31,15.70
2015,05,19,00,32,15.80
2015,05,19,00,33,15.80
2015,05,19,00,34,15.80
2015,05,19,00,35,15.80
2015,05,19,00,36,15.80
2015,05,19,00,37,15.80
2015,05,19,00,38,15.80
2015,05,19,00,39,15.80
2015,05,19,00,40,15.80
2015,05,19,00,41,15.80
2015,05,19,00,42,15.90
2015,05,19,00,43,16.00
2015,05,19,00,44,16.10
2015,05,19,00,45,16.10
2015,05,19,00,46,16.10
2015,05,19,00,47,16.10
2015,05,19,00,48,16.00
2015,05,19,00,49,16.00
2015,05,19,00,50,15.90
2015,05,19,00,51,15.80
2015,05,19,00,52,15.80
2015,05,19,00,53,15.70
2015,05,19,00,54,15.70
2015,05,19,00,55,15.60
2015,05,19,00,56,15.60
2015,05,19,00,57,15.60
2015,05,19,00,58,15.50
2015,05,19,00,59,15.50
2015,05,19,01,00,15.40
2015,05,19,01,01,15.40
2015,05,19,01,02,15.30
2015,05,19,01,03,15.30
2015,05,19,01,04,15.30
2015,05,19,01,05,15.20
2015,05,19,01,06,15.20
2015,05,19,01,07,15.20
2015,05,19,01,08,15.20
2015,05,19,01,09,15.20
2015,05,19,01,10,15.10
2015,05,19,01,11,15.10
2015,05,19,01,12,15.10
2015,05,19,01,13,15.10
2015,05,19,01,14,15.10
2015,05,19,01,15,15.20
2015,05,19,01,16,15.20
2015,05,19,01,17,15.20
2015,05,19,01,18,15.20
2015,05,19,01,19,15.20
2015,05,19,01,20,15.20
2015,05,19,01,21,15.20
2015,05,19,01,22,15.20
2015,05,19,01,23,15.20
2015,05,19,01,24,15.20
2015,05,19,01,25,15.10
2015,05,19,01,26,15.10
2015,05,19,01,27,15.10
2015,05,19,01,28,15.00
2015,05,19,01,29,15.00
2015,05,19,01,30,14.90
2015,05,19,01,31,14.90
2015,05,19,01,32,14.90
2015,05,19,01,33,14.90
2015,05,19,01,34,14.90
2015,05,19,01,35,14.90
2015,05,19,01,36,14.90
2015,05,19,01,37,14.90
2015,05,19,01,38,14.90
2015,05,19,01,39,14.90
2015,05,19,01,40,14.90
2015,05,19,01,41,14.90
2015,05,19,01,42,14.90
2015,05,19,01,43,14.90
2015,05,19,01,44,14.90
2015,05,19,01,45,14.90
2015,05,19,01,46,14.90
2015,05,19,01,47,14.90
2015,05,19,01,48,14.90
2015,05,19,01,49,14.90
2015,05,19,01,50,14.90
2015,05,19,01,51,14.80
2015,05,19,01,52,14.80
2015,05,19,01,53,14.80
2015,05,19,01,54,14.80
2015,05,19,01,55,14.70
2015,05,19,01,56,14.70
2015,05,19,01,57,14.70
2015,05,19,01,58,14.70
2015,05,19,01,59,14.60
2015,05,19,02,00,14.60
2015,05,19,02,01,14.60
2015,05,19,02,02,14.50
2015,05,19,02,03,14.50
2015,05,19,02,04,14.40
2015,05,19,02,05,14.40
2015,05,19,02,06,14.40
2015,05,19,02,07,14.40
2015,05,19,02,08,14.40
2015,05,19,02,09,14.30
2015,05,19,02,10,14.30
2015,05,19,02,11,14.30
2015,05,19,02,12,14.30
2015,05,19,02,13,14.30
2015,05,19,02,14,14.30
2015,05,19,02,15,14.30
2015,05,19,02,16,14.20
2015,05,19,02,17,14.20
2015,05,19,02,18,14.20
2015,05,19,02,19,14.20
2015,05,19,02,20,14.20
2015,05,19,02,21,14.20
2015,05,19,02,22,14.20
2015,05,19,02,23,14.10
2015,05,19,02,24,14.10
2015,05,19,02,25,14.10
2015,05,19,02,26,14.20
2015,05,19,02,27,14.20
2015,05,19,02,28,14.20
2015,05,19,02,29,14.20
2015,05,19,02,30,14.20
2015,05,19,02,31,14.30
2015,05,19,02,32,14.20
2015,05,19,02,33,14.20
2015,05,19,02,34,14.20
2015,05,19,02,35,14.20
2015,05,19,02,36,14.20
2015,05,19,02,37,14.20
2015,05,19,02,38,14.20
2015,05,19,02,39,14.10
2015,05,19,02,40,14.10
2015,05,19,02,41,14.10
2015,05,19,02,42,14.00
2015,05,19,02,43,14.00
2015,05,19,02,44,13.90
2015,05,19,02,45,13.80
2015,05,19,02,46,13.80
2015,05,19,02,47,13.70
2015,05,19,02,48,13.70
2015,05,19,02,49,13.70
2015,05,19,02,50,13.70
2015,05,19,02,51,13.70
2015,05,19,02,52,13.60
2015,05,19,02,53,13.60
2015,05,19,02,54,13.60
2015,05,19,02,55,13.60
2015,05,19,02,56,13.60
2015,05,19,02,57,13.60
2015,05,19,02,58,13.60
2015,05,19,02,59,13.50
2015,05,19,03,00,13.50
2015,05,19,03,01,13.50
2015,05,19,03,02,13.50
2015,05,19,03,03,13.40
2015,05,19,03,04,13.40
2015,05,19,03,05,13.40
2015,05,19,03,06,13.40
2015,05,19,03,07,13.40
2015,05,19,03,08,13.30
2015,05,19,03,09,13.30
2015,05,19,03,10,13.20
2015,05,19,03,11,13.20
2015,05,19,03,12,13.20
2015,05,19,03,13,13.20
2015,05,19,03,14,13.10
2015,05,19,03,15,13.10
2015,05,19,03,16,13.10
2015,05,19,03,17,13.00
2015,05,19,03,18,13.00
2015,05,19,03,19,13.00
2015,05,19,03,20,12.90
2015,05,19,03,21,12.90
2015,05,19,03,22,12.90
2015,05,19,03,23,12.90
2015,05,19,03,24,12.90
2015,05,19,03,25,12.80
2015,05,19,03,26,12.80
2015,05,19,03,27,12.80
2015,05,19,03,28,12.80
2015,05,19,03,29,12.80
2015,05,19,03,30,12.80
2015,05,19,03,31,12.80
2015,05,19,03,32,12.80
2015,05,19,03,33,12.80
2015,05,19,03,34,12.80
2015,05,19,03,35,12.70
2015,05,19,03,36,12.70
2015,05,19,03,37,12.70
2015,05,19,03,38,12.70
2015,05,19,03,39,12.70
2015,05,19,03,40,12.70
2015,05,19,03,41,12.80
2015,05,19,03,42,12.80
2015,05,19,03,43,12.80
2015,05,19,03,44,12.80
2015,05,19,03,45,12.80
2015,05,19,03,46,12.80
2015,05,19,03,47,12.80
2015,05,19,03,48,12.80
2015,05,19,03,49,12.80
2015,05,19,03,50,12.80
2015,05,19,03,51,12.80
2015,05,19,03,52,12.80
2015,05,19,03,53,12.80
2015,05,19,03,54,12.80
2015,05,19,03,55,12.80
2015,05,19,03,56,12.80
2015,05,19,03,57,12.80
2015,05,19,03,58,12.80
2015,05,19,03,59,12.80
2015,05,19,04,00,12.80
2015,05,19,04,01,12.80
2015,05,19,04,02,12.80
2015,05,19,04,03,12.80
2015,05,19,04,04,12.80
2015,05,19,04,05,12.70
2015,05,19,04,06,12.70
2015,05,19,04,07,12.70
2015,05,19,04,08,12.70
2015,05,19,04,09,12.70
2015,05,19,04,10,12.70
2015,05,19,04,11,12.70
2015,05,19,04,12,12.70
2015,05,19,04,13,12.70
2015,05,19,04,14,12.60
2015,05,19,04,15,12.60
2015,05,19,04,16,12.60
2015,05,19,04,17,12.60
2015,05,19,04,18,12.60
2015,05,19,04,19,12.50
2015,05,19,04,20,12.50
2015,05,19,04,21,12.50
2015,05,19,04,22,12.50
2015,05,19,04,23,12.40
2015,05,19,04,24,12.40
2015,05,19,04,25,12.40
2015,05,19,04,26,12.40
2015,05,19,04,27,12.30
2015,05,19,04,28,12.30
2015,05,19,04,29,12.30
2015,05,19,04,30,12.20
2015,05,19,04,31,12.20
2015,05,19,04,32,12.20
2015,05,19,04,33,12.20
2015,05,19,04,34,12.10
2015,05,19,04,35,12.10
2015,05,19,04,36,12.10
2015,05,19,04,37,12.10
2015,05,19,04,38,12.00
2015,05,19,04,39,12.00
2015,05,19,04,40,12.00
2015,05,19,04,41,12.00
2015,05,19,04,42,12.00
2015,05,19,04,43,11.90
2015,05,19,04,44,11.90
2015,05,19,04,45,11.90
2015,05,19,04,46,11.90
2015,05,19,04,47,11.90
2015,05,19,04,48,11.90
2015,05,19,04,49,11.80
2015,05,19,04,50,11.80
2015,05,19,04,51,11.80
2015,05,19,04,52,11.80
2015,05,19,04,53,11.80
2015,05,19,04,54,11.70
2015,05,19,04,55,11.70
2015,05,19,04,56,11.70
2015,05,19,04,57,11.70
2015,05,19,04,58,11.70
2015,05,19,04,59,11.60
2015,05,19,05,00,11.60
2015,05,19,05,01,11.60
2015,05,19,05,02,11.60
2015,05,19,05,03,11.60
2015,05,19,05,04,11.60
2015,05,19,05,05,11.60
2015,05,19,05,06,11.60
2015,05,19,05,07,11.60
2015,05,19,05,08,11.50
2015,05,19,05,09,11.50
2015,05,19,05,10,11.50
2015,05,19,05,11,11.50
2015,05,19,05,12,11.40
2015,05,19,05,13,11.40
2015,05,19,05,14,11.40
2015,05,19,05,15,11.40
2015,05,19,05,16,11.40
2015,05,19,05,17,11.40
2015,05,19,05,18,11.40
2015,05,19,05,19,11.30
2015,05,19,05,20,11.30
2015,05,19,05,21,11.30
2015,05,19,05,22,11.30
2015,05,19,05,23,11.30
2015,05,19,05,24,11.30
2015,05,19,05,25,11.30
2015,05,19,05,26,11.30
2015,05,19,05,27,11.20
2015,05,19,05,28,11.20
2015,05,19,05,29,11.20
2015,05,19,05,30,11.20
2015,05,19,05,31,11.20
2015,05,19,05,32,11.20
2015,05,19,05,33,11.20
2015,05,19,05,34,11.20
2015,05,19,05,35,11.20
2015,05,19,05,36,11.30
2015,05,19,05,37,11.30
2015,05,19,05,38,11.20
2015,05,19,05,39,11.20
2015,05,19,05,40,11.20
2015,05,19,05,41,11.20
2015,05,19,05,42,11.20
2015,05,19,05,43,11.20
2015,05,19,05,44,11.20
2015,05,19,05,45,11.20
2015,05,19,05,46,11.20
2015,05,19,05,47,11.20
2015,05,19,05,48,11.20
2015,05,19,05,49,11.30
2015,05,19,05,50,11.30
2015,05,19,05,51,11.30
2015,05,19,05,52,11.30
2015,05,19,05,53,11.30
2015,05,19,05,54,11.30
2015,05,19,05,55,11.30
2015,05,19,05,56,11.30
2015,05,19,05,57,11.20
2015,05,19,05,58,11.20
2015,05,19,05,59,11.20
2015,05,19,06,00,11.20
2015,05,19,06,01,11.20
2015,05,19,06,02,11.20
2015,05,19,06,03,11.20
2015,05,19,06,04,11.30
2015,05,19,06,05,11.30
2015,05,19,06,06,11.30
2015,05,19,06,07,11.30
2015,05,19,06,08,11.30
2015,05,19,06,09,11.30
2015,05,19,06,10,11.40
2015,05,19,06,11,11.40
2015,05,19,06,12,11.40
2015,05,19,06,13,11.50
2015,05,19,06,14,11.50
2015,05,19,06,15,11.50
2015,05,19,06,16,11.60
2015,05,19,06,17,11.60
2015,05,19,06,18,11.60
2015,05,19,06,19,11.60
2015,05,19,06,20,11.70
2015,05,19,06,21,11.70
2015,05,19,06,22,11.70
2015,05,19,06,23,11.70
2015,05,19,06,24,11.70
2015,05,19,06,25,11.80
2015,05,19,06,26,11.80
2015,05,19,06,27,11.80
2015,05,19,06,28,11.90
2015,05,19,06,29,11.90
2015,05,19,06,30,11.90
2015,05,19,06,31,11.90
2015,05,19,06,32,11.90
2015,05,19,06,33,11.90
2015,05,19,06,34,12.00
2015,05,19,06,35,12.00
2015,05,19,06,36,12.10
2015,05,19,06,37,12.20
2015,05,19,06,38,12.20
2015,05,19,06,39,12.20
2015,05,19,06,40,12.30
2015,05,19,06,41,12.30
2015,05,19,06,42,12.30
2015,05,19,06,43,12.30
2015,05,19,06,44,12.30
2015,05,19,06,45,12.30
2015,05,19,06,46,12.30
2015,05,19,06,47,12.30
2015,05,19,06,48,12.30
2015,05,19,06,49,12.40
2015,05,19,06,50,12.40
2015,05,19,06,51,12.40
2015,05,19,06,52,12.40
2015,05,19,06,53,12.40
2015,05,19,06,54,12.50
2015,05,19,06,55,12.50
2015,05,19,06,56,12.60
2015,05,19,06,57,12.70
2015,05,19,06,58,12.80
2015,05,19,06,59,12.90
2015,05,19,07,00,13.00
2015,05,19,07,01,13.10
2015,05,19,07,02,13.30
2015,05,19,07,03,13.50
2015,05,19,07,04,13.60
2015,05,19,07,05,13.80
2015,05,19,07,06,14.00
2015,05,19,07,07,14.20
2015,05,19,07,08,14.30
2015,05,19,07,09,14.40
2015,05,19,07,10,14.60
2015,05,19,07,11,14.70
2015,05,19,07,12,14.80
2015,05,19,07,13,14.90
2015,05,19,07,14,15.00
2015,05,19,07,15,15.10
2015,05,19,07,16,15.20
2015,05,19,07,17,15.20
2015,05,19,07,18,15.30
2015,05,19,07,19,15.30
2015,05,19,07,20,15.40
2015,05,19,07,21,15.40
2015,05,19,07,22,15.40
2015,05,19,07,23,15.40
2015,05,19,07,24,15.40
2015,05,19,07,25,15.40
2015,05,19,07,26,15.40
2015,05,19,07,27,15.50
2015,05,19,07,28,15.50
2015,05,19,07,29,15.60
2015,05,19,07,30,15.60
2015,05,19,07,31,15.70
2015,05,19,07,32,15.70
2015,05,19,07,33,15.80
2015,05,19,07,34,15.90
2015,05,19,07,35,15.90
2015,05,19,07,36,15.90
2015,05,19,07,37,15.90
2015,05,19,07,38,16.00
2015,05,19,07,39,16.00
2015,05,19,07,40,16.00
2015,05,19,07,41,16.10
2015,05,19,07,42,16.10
2015,05,19,07,43,16.20
2015,05,19,07,44,16.20
2015,05,19,07,45,16.30
2015,05,19,07,46,16.30
2015,05,19,07,47,16.40
2015,05,19,07,48,16.50
2015,05,19,07,49,16.50
2015,05,19,07,50,16.60
2015,05,19,07,51,16.70
2015,05,19,07,52,16.80
2015,05,19,07,53,16.80
2015,05,19,07,54,16.90
2015,05,19,07,55,17.00
2015,05,19,07,56,17.10
2015,05,19,07,57,17.10
2015,05,19,07,58,17.20
2015,05,19,07,59,17.20
2015,05,19,08,00,17.30
2015,05,19,08,01,17.30
2015,05,19,08,02,17.40
2015,05,19,08,03,17.40
2015,05,19,08,04,17.50
2015,05,19,08,05,17.50
2015,05,19,08,06,17.40
2015,05,19,08,07,17.40
2015,05,19,08,08,17.30
2015,05,19,08,09,17.40
2015,05,19,08,10,17.40
2015,05,19,08,11,17.50
2015,05,19,08,12,17.60
2015,05,19,08,13,17.70
2015,05,19,08,14,17.70
2015,05,19,08,15,17.80
2015,05,19,08,16,17.80
2015,05,19,08,17,17.90
2015,05,19,08,18,17.90
2015,05,19,08,19,17.90
2015,05,19,08,20,18.00
2015,05,19,08,21,18.00
2015,05,19,08,22,18.00
2015,05,19,08,23,18.00
2015,05,19,08,24,18.00
2015,05,19,08,25,18.10
2015,05,19,08,26,18.10
2015,05,19,08,27,18.00
2015,05,19,08,28,18.10
2015,05,19,08,29,18.10
2015,05,19,08,30,18.10
2015,05,19,08,31,18.10
2015,05,19,08,32,18.10
2015,05,19,08,33,18.10
2015,05,19,08,34,18.10
2015,05,19,08,35,18.10
2015,05,19,08,36,18.20
2015,05,19,08,37,18.20
2015,05,19,08,38,18.30
2015,05,19,08,39,18.40
2015,05,19,08,40,18.50
2015,05,19,08,41,18.60
2015,05,19,08,42,18.60
2015,05,19,08,43,18.60
2015,05,19,08,44,18.60
2015,05,19,08,45,18.60
2015,05,19,08,46,18.60
2015,05,19,08,47,18.60
2015,05,19,08,48,18.60
2015,05,19,08,49,18.60
2015,05,19,08,50,18.60
2015,05,19,08,51,18.60
2015,05,19,08,52,18.50
2015,05,19,08,53,18.50
2015,05,19,08,54,18.40
2015,05,19,08,55,18.30
2015,05,19,08,56,18.10
2015,05,19,08,57,18.10
2015,05,19,08,58,18.10
2015,05,19,08,59,18.00
2015,05,19,09,00,18.10
2015,05,19,09,01,18.10
2015,05,19,09,02,18.20
2015,05,19,09,03,18.30
2015,05,19,09,04,18.40
2015,05,19,09,05,18.50
2015,05,19,09,06,18.60
2015,05,19,09,07,18.80
2015,05,19,09,08,18.90
2015,05,19,09,09,19.00
2015,05,19,09,10,19.00
2015,05,19,09,11,19.10
2015,05,19,09,12,19.20
2015,05,19,09,13,19.30
2015,05,19,09,14,19.30
2015,05,19,09,15,19.30
2015,05,19,09,16,19.40
2015,05,19,09,17,19.40
2015,05,19,09,18,19.30
2015,05,19,09,19,19.30
2015,05,19,09,20,19.30
2015,05,19,09,21,19.30
2015,05,19,09,22,19.30
2015,05,19,09,23,19.30
2015,05,19,09,24,19.30
2015,05,19,09,25,19.30
2015,05,19,09,26,19.20
2015,05,19,09,27,19.20
2015,05,19,09,28,19.20
2015,05,19,09,29,19.20
2015,05,19,09,30,19.20
2015,05,19,09,31,19.20
2015,05,19,09,32,19.20
2015,05,19,09,33,19.20
2015,05,19,09,34,19.20
2015,05,19,09,35,19.30
2015,05,19,09,36,19.40
2015,05,19,09,37,19.50
2015,05,19,09,38,19.50
2015,05,19,09,39,19.60
2015,05,19,09,40,19.70
2015,05,19,09,41,19.80
2015,05,19,09,42,19.80
2015,05,19,09,43,19.90
2015,05,19,09,44,20.00
2015,05,19,09,45,20.00
2015,05,19,09,46,20.10
2015,05,19,09,47,20.10
2015,05,19,09,48,20.20
2015,05,19,09,49,20.30
2015,05,19,09,50,20.30
2015,05,19,09,51,20.30
2015,05,19,09,52,20.30
2015,05,19,09,53,20.30
2015,05,19,09,54,20.30
2015,05,19,09,55,20.20
2015,05,19,09,56,20.20
2015,05,19,09,57,20.20
2015,05,19,09,58,20.30
2015,05,19,09,59,20.30
2015,05,19,10,00,20.40
2015,05,19,10,01,20.50
2015,05,19,10,02,20.50
2015,05,19,10,03,20.40
2015,05,19,10,04,20.30
2015,05,19,10,05,20.30
2015,05,19,10,06,20.20
2015,05,19,10,07,20.20
2015,05,19,10,08,20.30
2015,05,19,10,09,20.20
2015,05,19,10,10,20.20
2015,05,19,10,11,20.20
2015,05,19,10,12,20.20
2015,05,19,10,13,20.30
2015,05,19,10,14,20.40
2015,05,19,10,15,20.40
2015,05,19,10,16,20.50
2015,05,19,10,17,20.50
2015,05,19,10,18,20.60
2015,05,19,10,19,20.70
2015,05,19,10,20,20.70
2015,05,19,10,21,20.80
2015,05,19,10,22,20.80
2015,05,19,10,23,20.80
2015,05,19,10,24,20.70
2015,05,19,10,25,20.70
2015,05,19,10,26,20.70
2015,05,19,10,27,20.60
2015,05,19,10,28,20.60
2015,05,19,10,29,20.50
2015,05,19,10,30,20.40
2015,05,19,10,31,20.40
2015,05,19,10,32,20.30
2015,05,19,10,33,20.20
2015,05,19,10,34,20.20
2015,05,19,10,35,20.20
2015,05,19,10,36,20.20
2015,05,19,10,37,20.20
2015,05,19,10,38,20.10
2015,05,19,10,39,20.00
2015,05,19,10,40,19.90
2015,05,19,10,41,19.90
2015,05,19,10,42,19.90
2015,05,19,10,43,20.00
2015,05,19,10,44,19.90
2015,05,19,10,45,19.90
2015,05,19,10,46,19.90
2015,05,19,10,47,19.90
2015,05,19,10,48,19.90
2015,05,19,10,49,19.90
2015,05,19,10,50,19.90
2015,05,19,10,51,19.80
2015,05,19,10,52,19.80
2015,05,19,10,53,19.70
2015,05,19,10,54,19.70
2015,05,19,10,55,19.70
2015,05,19,10,56,19.70
2015,05,19,10,57,19.70
2015,05,19,10,58,19.70
2015,05,19,10,59,19.70
2015,05,19,11,00,19.70
2015,05,19,11,01,19.70
2015,05,19,11,02,19.80
2015,05,19,11,03,19.80
2015,05,19,11,04,19.80
2015,05,19,11,05,19.90
2015,05,19,11,06,19.90
2015,05,19,11,07,20.00
2015,05,19,11,08,20.10
2015,05,19,11,09,20.10
2015,05,19,11,10,20.00
2015,05,19,11,11,20.00
2015,05,19,11,12,20.10
2015,05,19,11,13,20.10
2015,05,19,11,14,20.10
2015,05,19,11,15,20.10
2015,05,19,11,16,20.10
2015,05,19,11,17,20.10
2015,05,19,11,18,20.10
2015,05,19,11,19,20.20
2015,05,19,11,20,20.20
2015,05,19,11,21,20.20
2015,05,19,11,22,20.20
2015,05,19,11,23,20.20
2015,05,19,11,24,20.20
2015,05,19,11,25,20.20
2015,05,19,11,26,20.20
2015,05,19,11,27,20.30
2015,05,19,11,28,20.40
2015,05,19,11,29,20.40
2015,05,19,11,30,20.40
2015,05,19,11,31,20.40
2015,05,19,11,32,20.30
2015,05,19,11,33,20.30
2015,05,19,11,34,20.20
2015,05,19,11,35,20.10
2015,05,19,11,36,20.10
2015,05,19,11,37,20.10
2015,05,19,11,38,20.10
2015,05,19,11,39,20.10
2015,05,19,11,40,20.10
2015,05,19,11,41,20.20
2015,05,19,11,42,20.20
2015,05,19,11,43,20.30
2015,05,19,11,44,20.30
2015,05,19,11,45,20.40
2015,05,19,11,46,20.40
2015,05,19,11,47,20.40
2015,05,19,11,48,20.50
2015,05,19,11,49,20.50
2015,05,19,11,50,20.50
2015,05,19,11,51,20.60
2015,05,19,11,52,20.60
2015,05,19,11,53,20.60
2015,05,19,11,54,20.70
2015,05,19,11,55,20.70
2015,05,19,11,56,20.70
2015,05,19,11,57,20.80
2015,05,19,11,58,20.80
2015,05,19,11,59,20.90
2015,05,19,12,00,20.90
2015,05,19,12,01,21.00
2015,05,19,12,02,21.10
2015,05,19,12,03,21.10
2015,05,19,12,04,21.10
2015,05,19,12,05,21.10
2015,05,19,12,06,21.20
2015,05,19,12,07,21.30
2015,05,19,12,08,21.40
2015,05,19,12,09,21.40
2015,05,19,12,10,21.50
2015,05,19,12,11,21.50
2015,05,19,12,12,21.50
2015,05,19,12,13,21.50
2015,05,19,12,14,21.60
2015,05,19,12,15,21.70
2015,05,19,12,16,21.70
2015,05,19,12,17,21.70
2015,05,19,12,18,21.80
2015,05,19,12,19,21.80
2015,05,19,12,20,21.90
2015,05,19,12,21,21.90
2015,05,19,12,22,22.00
2015,05,19,12,23,21.90
2015,05,19,12,24,21.90
2015,05,19,12,25,21.80
2015,05,19,12,26,21.70
2015,05,19,12,27,21.70
2015,05,19,12,28,21.60
2015,05,19,12,29,21.60
2015,05,19,12,30,21.60
2015,05,19,12,31,21.70
2015,05,19,12,32,21.80
2015,05,19,12,33,21.80
2015,05,19,12,34,21.80
2015,05,19,12,35,21.80
2015,05,19,12,36,21.80
2015,05,19,12,37,21.80
2015,05,19,12,38,21.80
2015,05,19,12,39,21.80
2015,05,19,12,40,21.80
2015,05,19,12,41,21.80
2015,05,19,12,42,21.80
2015,05,19,12,43,21.80
2015,05,19,12,44,21.80
2015,05,19,12,45,21.80
2015,05,19,12,46,21.80
2015,05,19,12,47,21.80
2015,05,19,12,48,21.80
2015,05,19,12,49,21.80
2015,05,19,12,50,21.80
2015,05,19,12,51,21.80
2015,05,19,12,52,21.80
2015,05,19,12,53,21.80
2015,05,19,12,54,21.90
2015,05,19,12,55,22.00
2015,05,19,12,56,22.10
2015,05,19,12,57,22.10
2015,05,19,12,58,22.10
2015,05,19,12,59,22.10
2015,05,19,13,00,22.10
2015,05,19,13,01,22.10
2015,05,19,13,02,22.20
2015,05,19,13,03,22.20
2015,05,19,13,04,22.30
2015,05,19,13,05,22.30
2015,05,19,13,06,22.30
2015,05,19,13,07,22.30
2015,05,19,13,08,22.40
2015,05,19,13,09,22.40
2015,05,19,13,10,22.40
2015,05,19,13,11,22.40
2015,05,19,13,12,22.40
2015,05,19,13,13,22.40
2015,05,19,13,14,22.40
2015,05,19,13,15,22.40
2015,05,19,13,16,22.40
2015,05,19,13,17,22.50
2015,05,19,13,18,22.60
2015,05,19,13,19,22.60
2015,05,19,13,20,22.70
2015,05,19,13,21,22.60
2015,05,19,13,22,22.60
2015,05,19,13,23,22.60
2015,05,19,13,24,22.60
2015,05,19,13,25,22.60
2015,05,19,13,26,22.60
2015,05,19,13,27,22.60
2015,05,19,13,28,22.60
2015,05,19,13,29,22.60
2015,05,19,13,30,22.60
2015,05,19,13,31,22.70
2015,05,19,13,32,22.70
2015,05,19,13,33,22.80
2015,05,19,13,34,22.80
2015,05,19,13,35,22.80
2015,05,19,13,36,22.80
2015,05,19,13,37,22.90
2015,05,19,13,38,22.90
2015,05,19,13,39,23.00
2015,05,19,13,40,23.10
2015,05,19,13,41,23.20
2015,05,19,13,42,23.20
2015,05,19,13,43,23.20
2015,05,19,13,44,23.20
2015,05,19,13,45,23.30
2015,05,19,13,46,23.30
2015,05,19,13,47,23.40
2015,05,19,13,48,23.40
2015,05,19,13,49,23.50
2015,05,19,13,50,23.50
2015,05,19,13,51,23.50
2015,05,19,13,52,23.60
2015,05,19,13,53,23.60
2015,05,19,13,54,23.60
2015,05,19,13,55,23.50
2015,05,19,13,56,23.50
2015,05,19,13,57,23.50
2015,05,19,13,58,23.50
2015,05,19,13,59,23.60
2015,05,19,14,00,23.70
2015,05,19,14,01,23.70
2015,05,19,14,02,23.70
2015,05,19,14,03,23.70
2015,05,19,14,04,23.60
2015,05,19,14,05,23.60
2015,05,19,14,06,23.50
2015,05,19,14,07,23.50
2015,05,19,14,08,23.50
2015,05,19,14,09,23.50
2015,05,19,14,10,23.50
2015,05,19,14,11,23.50
2015,05,19,14,12,23.50
2015,05,19,14,13,23.50
2015,05,19,14,14,23.50
2015,05,19,14,15,23.40
2015,05,19,14,16,23.40
2015,05,19,14,17,23.40
2015,05,19,14,18,23.40
2015,05,19,14,19,23.50
2015,05,19,14,20,23.50
2015,05,19,14,21,23.50
2015,05,19,14,22,23.50
2015,05,19,14,23,23.50
2015,05,19,14,24,23.50
2015,05,19,14,25,23.50
2015,05,19,14,26,23.50
2015,05,19,14,27,23.60
2015,05,19,14,28,23.60
2015,05,19,14,29,23.60
2015,05,19,14,30,23.70
2015,05,19,14,31,23.70
2015,05,19,14,32,23.80
2015,05,19,14,33,23.80
2015,05,19,14,34,23.80
2015,05,19,14,35,23.90
2015,05,19,14,36,23.90
2015,05,19,14,37,23.90
2015,05,19,14,38,24.00
2015,05,19,14,39,24.00
2015,05,19,14,40,24.00
2015,05,19,14,41,24.00
2015,05,19,14,42,24.10
2015,05,19,14,43,24.10
2015,05,19,14,44,24.20
2015,05,19,14,45,24.20
2015,05,19,14,46,24.20
2015,05,19,14,47,24.20
2015,05,19,14,48,24.20
2015,05,19,14,49,24.20
2015,05,19,14,50,24.20
2015,05,19,14,51,24.20
2015,05,19,14,52,24.20
2015,05,19,14,53,24.20
2015,05,19,14,54,24.20
2015,05,19,14,55,24.30
2015,05,19,14,56,24.30
2015,05,19,14,57,24.30
2015,05,19,14,58,24.40
2015,05,19,14,59,24.40
2015,05,19,15,00,24.40
2015,05,19,15,01,24.40
2015,05,19,15,02,24.40
2015,05,19,15,03,24.50
2015,05,19,15,04,24.50
2015,05,19,15,05,24.50
2015,05,19,15,06,24.60
2015,05,19,15,07,24.70
2015,05,19,15,08,24.80
2015,05,19,15,09,24.80
2015,05,19,15,10,24.90
2015,05,19,15,11,24.90
2015,05,19,15,12,24.90
2015,05,19,15,13,24.90
2015,05,19,15,14,24.90
2015,05,19,15,15,24.90
2015,05,19,15,16,24.90
2015,05,19,15,17,25.00
2015,05,19,15,18,25.00
2015,05,19,15,19,25.00
2015,05,19,15,20,25.00
2015,05,19,15,21,25.00
2015,05,19,15,22,24.90
2015,05,19,15,23,24.90
2015,05,19,15,24,24.90
2015,05,19,15,25,24.90
2015,05,19,15,26,24.80
2015,05,19,15,27,24.80
2015,05,19,15,28,24.70
2015,05,19,15,29,24.70
2015,05,19,15,30,24.80
2015,05,19,15,31,24.80
2015,05,19,15,32,24.80
2015,05,19,15,33,24.80
2015,05,19,15,34,24.90
2015,05,19,15,35,24.90
2015,05,19,15,36,24.90
2015,05,19,15,37,24.90
2015,05,19,15,38,24.90
2015,05,19,15,39,24.80
2015,05,19,15,40,24.80
2015,05,19,15,41,24.80
2015,05,19,15,42,24.80
2015,05,19,15,43,24.80
2015,05,19,15,44,24.90
2015,05,19,15,45,24.90
2015,05,19,15,46,24.90
2015,05,19,15,47,24.90
2015,05,19,15,48,24.90
2015,05,19,15,49,24.90
2015,05,19,15,50,25.00
2015,05,19,15,51,25.10
2015,05,19,15,52,25.10
2015,05,19,15,53,25.20
2015,05,19,15,54,25.20
2015,05,19,15,55,25.10
2015,05,19,15,56,25.10
2015,05,19,15,57,25.10
2015,05,19,15,58,25.00
2015,05,19,15,59,25.00
2015,05,19,16,00,24.90
2015,05,19,16,01,25.00
2015,05,19,16,02,25.00
2015,05,19,16,03,25.10
2015,05,19,16,04,25.10
2015,05,19,16,05,25.00
2015,05,19,16,06,25.00
2015,05,19,16,07,25.10
2015,05,19,16,08,25.10
2015,05,19,16,09,25.10
2015,05,19,16,10,25.10
2015,05,19,16,11,25.10
2015,05,19,16,12,25.10
2015,05,19,16,13,25.10
2015,05,19,16,14,25.10
2015,05,19,16,15,25.00
2015,05,19,16,16,25.00
2015,05,19,16,17,25.00
2015,05,19,16,18,25.00
2015,05,19,16,19,25.10
2015,05,19,16,20,25.10
2015,05,19,16,21,25.20
2015,05,19,16,22,25.20
2015,05,19,16,23,25.20
2015,05,19,16,24,25.20
2015,05,19,16,25,25.20
2015,05,19,16,26,25.20
2015,05,19,16,27,25.20
2015,05,19,16,28,25.20
2015,05,19,16,29,25.20
2015,05,19,16,30,25.20
2015,05,19,16,31,25.30
2015,05,19,16,32,25.30
2015,05,19,16,33,25.20
2015,05,19,16,34,25.20
2015,05,19,16,35,25.20
2015,05,19,16,36,25.20
2015,05,19,16,37,25.30
2015,05,19,16,38,25.30
2015,05,19,16,39,25.30
2015,05,19,16,40,25.30
2015,05,19,16,41,25.30
2015,05,19,16,42,25.40
2015,05,19,16,43,25.40
2015,05,19,16,44,25.40
2015,05,19,16,45,25.50
2015,05,19,16,46,25.50
2015,05,19,16,47,25.50
2015,05,19,16,48,25.50
2015,05,19,16,49,25.40
2015,05,19,16,50,25.40
2015,05,19,16,51,25.30
2015,05,19,16,52,25.20
2015,05,19,16,53,25.10
2015,05,19,16,54,25.10
2015,05,19,16,55,25.10
2015,05,19,16,56,25.10
2015,05,19,16,57,25.10
2015,05,19,16,58,25.10
2015,05,19,16,59,25.10
2015,05,19,17,00,25.10
2015,05,19,17,01,25.10
2015,05,19,17,02,25.10
2015,05,19,17,03,25.10
2015,05,19,17,04,25.10
2015,05,19,17,05,25.10
2015,05,19,17,06,25.20
2015,05,19,17,07,25.20
2015,05,19,17,08,25.20
2015,05,19,17,09,25.30
2015,05,19,17,10,25.30
2015,05,19,17,11,25.30
2015,05,19,17,12,25.30
2015,05,19,17,13,25.30
2015,05,19,17,14,25.30
2015,05,19,17,15,25.30
2015,05,19,17,16,25.30
2015,05,19,17,17,25.40
2015,05,19,17,18,25.40
2015,05,19,17,19,25.40